Powrót do katalogu

STARLINK-11709

AktywnyŁącznośćVLEO
NORAD 64065·PAYLOAD·🇺🇸 United States

Wystrzelony May 21, 2025 z Cape Canaveral Space Force Station

Loading…

Następne Przeloty (najbliższe 24 godziny)

TLE

ŚwieżeSource: CelesTrak SupGP

Epoka: Sep 15, 2026, 02:48 UTC

1 64065C 25107B   26258.11715278 -.00093198  00000+0 -72360-3 0  2581
2 64065  43.0010  36.6629 0001690 269.0503 227.8298 15.70893204    12

Śledź STARLINK-11709 w czasie rzeczywistym z AllMySat

Download on the App Store